Location: Bazinghen
(50.8246°N, 1.6616°E)
Time: 00:38:15
(UTC+00:00)

Cosmos 1943 - Pass Details

Date: 09 April 2020
Orbit: 832 x 851 km, 71.0° (Epoch: 04 June)

Event Time Altitude Azimuth Distance (km) Brightness Sun altitude
Rises 19:08:30 0° 209° (SSW) 3,385 6.5 -5.2°
Reaches altitude 10° 19:10:55 10° 210° (SSW) 2,457 5.8 -5.5°
Maximum altitude 19:16:35 86° 300° (WNW) 855 3.3 -6.4°
Drops below altitude 10° 19:22:19 10° 29° (NNE) 2,484 5.6 -7.2°
Sets 19:24:47 0° 30° (NNE) 3,426 6.3 -7.6°
